QPF
0.00 0.00 0.00 0.00 0.00 0.00 0.00 0.00 0.00 0.00 0.00 0.00 0.00 0.00 0.00 0.00 0.00 0.00 0.00 0.00 0.00 0.00 0.00 0.00 0.00 0.00 0.00 0.00 0.00 0.00 0.00 0.00 0.00 0.00 0.00 0.00 0.00 0.00 0.00 0.00 0.00 0.00 0.00 0.00 0.00 0.00 0.00
0.00 0.00 0.00 0.00 0.00 0.00 0.00 0.00 0.00 0.00 0.00 0.00 0.00 0.00 0.00 0.00 0.00 0.00 0.00 0.00 0.00 0.00 0.00 0.00 0.00 0.00 0.00 0.00 0.00 0.00 0.00 0.00 0.00 0.00 0.00 0.00 0.00 0.00 0.00 0.00 0.00 0.00 0.00 0.00 0.00 0.00 0.00
0.00 0.00 0.00 0.00 0.00 0.00 0.00 0.00 0.00 0.00 0.00 0.00 0.00 0.00 0.00 0.00 0.00 0.00 0.00 0.00 0.00 0.00 0.00 0.00 0.00 0.00 0.00 0.00 0.00 0.00 0.00 0.00 0.00 0.00 0.00 0.00 0.00 0.00 0.00 0.00 0.00 0.00 0.00 0.00 0.00 0.00 0.00
0.00 0.00 0.00 0.00 0.00 0.00 0.00 0.00 0.00 0.00 0.00 0.00 0.00 0.00 0.00 0.00 0.00 0.00 0.00 0.00 0.00 0.00 0.00 0.00 0.00 0.00 0.00 0.00 0.00 0.00 0.00 0.00 0.00 0.00 0.00 0.00 0.00 0.00 0.00 0.00 0.00 0.00 0.00 0.00 0.00 0.00 0.00
0.00 0.00 0.00 0.00 0.00 0.00 0.00 0.00 0.00 0.00 0.00 0.00 0.00 0.00 0.00 0.00 0.00 0.00 0.00 0.00 0.00 0.00 0.00 0.00 0.00 0.00 0.00 0.00 0.00 0.00 0.00 0.00 0.00 0.00 0.00 0.00 0.00 0.00 0.00 0.00 0.00 0.00 0.00 0.00 0.00 0.00 0.00
0.00 0.00 0.00 0.00 0.00 0.00 0.00 0.00 0.00 0.00 0.00 0.00 0.00 0.00 0.00 0.00 0.00 0.00 0.00 0.00 0.00 0.00 0.00 0.00 0.00 0.00 0.00 0.00 0.00 0.00 0.00 0.00 0.00 0.00 0.00 0.00 0.00 0.00 0.00 0.00 0.00 0.00 0.00 0.00 0.00 0.00 0.00
0.00 0.00 0.00 0.00 0.00 0.00 0.00 0.00 0.00 0.00 0.00 0.00 0.00 0.00 0.00 0.00 0.00 0.00 0.00 0.00 0.00 0.00 0.00 0.00 0.00 0.00 0.00 0.00 0.00 0.00 0.00 0.00 0.00 0.00 0.00 0.00 0.00 0.00 0.00 0.00 0.00 0.00 0.00 0.00 0.00 0.00 0.00
0.00 0.00 0.00 0.00 0.00 0.00 0.00 0.00 0.00 0.00 0.00 0.00 0.00 0.00 0.00 0.00 0.00 0.00 0.00 0.00 0.00 0.00 0.00 0.00 0.00 0.00 0.00 0.00 0.00 0.00 0.00 0.00 0.00 0.00 0.00 0.00 0.00 0.00 0.00 0.00 0.00 0.00 0.00 0.00 0.00 0.00 0.00
0.00 0.00 0.00 0.00 0.00 0.00 0.00 0.00 0.00 0.00 0.00 0.00 0.00 0.00 0.00 0.00 0.00 0.00 0.00 0.00 0.00 0.00 0.00 0.00 0.00 0.00 0.00 0.00 0.00 0.00 0.00 0.00 0.00 0.00 0.00 0.00 0.00 0.00 0.00 0.00 0.00 0.00 0.00 0.00 0.00 0.00 0.00
0.00 0.00 0.00 0.00 0.00 0.00 0.00 0.00 0.00 0.00 0.00 0.00 0.00 0.00 0.00 0.00 0.00 0.00 0.00 0.00 0.00 0.00 0.00 0.00 0.00 0.00 0.00 0.00 0.00 0.00 0.00 0.00 0.00 0.00 0.00 0.00 0.00 0.00 0.00 0.00 0.00 0.00 0.00 0.00 0.00 0.00 0.00
0.00 0.00 0.00 0.00 0.00 0.00 0.00 0.00 0.00 0.00 0.00 0.00 0.00 0.00 0.00 0.00 0.00 0.00 0.00 0.00 0.00 0.00 0.00 0.00 0.00 0.00 0.00 0.00 0.00 0.00 0.00 0.00 0.00 0.00 0.00 0.00 0.00 0.00 0.00 0.00 0.00 0.00 0.00 0.00 0.00 0.00 0.00
0.00 0.00 0.01 0.00 0.00 0.00 0.00 0.00 0.00 0.00 0.00 0.00 0.00 0.00 0.00 0.00 0.00 0.00 0.00 0.00 0.00 0.00 0.00 0.00 0.00 0.00 0.00 0.00 0.00 0.00 0.00 0.00 0.00 0.00 0.00 0.00 0.00 0.00 0.00 0.00 0.00 0.00 0.00 0.00 0.00 0.00 0.00
0.00 0.00 0.00 0.00 0.00 0.00 0.00 0.00 0.00 0.00 0.00 0.00 0.00 0.00 0.00 0.00 0.00 0.00 0.00 0.00 0.00 0.00 0.00 0.00 0.00 0.00 0.00 0.00 0.00 0.00 0.00 0.00 0.00 0.00 0.00 0.00 0.00 0.00 0.00 0.00 0.00 0.00 0.00 0.00 0.00 0.00 0.00
0.00 0.00 0.00 0.00 0.00 0.00 0.00 0.00 0.00 0.00 0.00 0.00 0.00 0.00 0.00 0.00 0.00 0.00 0.00 0.00 0.00 0.00 0.00 0.00 0.00 0.00 0.00 0.00 0.00 0.00 0.00 0.00 0.00 0.00 0.00 0.00 0.00 0.00 0.00 0.00 0.00 0.00 0.00 0.00 0.00 0.00 0.00
0.00 0.00 0.00 0.00 0.00 0.00 0.00 0.00 0.00 0.00 0.00 0.00 0.00 0.00 0.00 0.00 0.00 0.00 0.00 0.00 0.00 0.00 0.00 0.00 0.00 0.00 0.00 0.00 0.00 0.00 0.00 0.00 0.00 0.00 0.00 0.00 0.00 0.00 0.00 0.00 0.00 0.00 0.00 0.00 0.00 0.00 0.00
0.00 0.00 0.00 0.00 0.00 0.00 0.00 0.00 0.00 0.00 0.00 0.00 0.00 0.00 0.00 0.00 0.00 0.00 0.00 0.00 0.00 0.00 0.00 0.00 0.00 0.00 0.00 0.00 0.00 0.00 0.00 0.00 0.00 0.00 0.00 0.00 0.00 0.00 0.00 0.00 0.00 0.00 0.00 0.00 0.00 0.00 0.00
0.00 0.00 0.00 0.00 0.00 0.00 0.00 0.00 0.00 0.00 0.00 0.00 0.00 0.00 0.00 0.00 0.00 0.00 0.00 0.00 0.00 0.00 0.00 0.00 0.00 0.00 0.00 0.00 0.00 0.00 0.00 0.00 0.00 0.00 0.00 0.00 0.00 0.00 0.00 0.00 0.00 0.00 0.00 0.00 0.00 0.00 0.00
0.00 0.00 0.00 0.00 0.00 0.00 0.00 0.00 0.00 0.00 0.00 0.00 0.00 0.00 0.00 0.00 0.00 0.00 0.00 0.00 0.00 0.00 0.00 0.00 0.00 0.00 0.00 0.00 0.00 0.00 0.00 0.00 0.00 0.00 0.00 0.00 0.00 0.00 0.00 0.00 0.00 0.00 0.00 0.00 0.00 0.00 0.00
0.00 0.00 0.00 0.00 0.00 0.00 0.00 0.00 0.00 0.00 0.00 0.00 0.00 0.00 0.00 0.00 0.00 0.00 0.00 0.00 0.00 0.00 0.00 0.00 0.00 0.00 0.00 0.00 0.00 0.00 0.00 0.00 0.00 0.00 0.00 0.00 0.00 0.00 0.00 0.00 0.00 0.00 0.00 0.00 0.00 0.00 0.00
0.00 0.00 0.00 0.00 0.00 0.00 0.00 0.00 0.00 0.00 0.00 0.00 0.00 0.00 0.00 0.00 0.00 0.00 0.00 0.00 0.00 0.00 0.00 0.00 0.00 0.00 0.00 0.00 0.00 0.00 0.00 0.00 0.00 0.00 0.00 0.00 0.00 0.00 0.00 0.00 0.00 0.00 0.00 0.00 0.00 0.00 0.00
0.00 0.00 0.00 0.00 0.00 0.00 0.00 0.00 0.00 0.00 0.00 0.00 0.00 0.01 0.00 0.00 0.00 0.00 0.00 0.01 0.01 0.00 0.00 0.00 0.00 0.00 0.00 0.00 0.00 0.00 0.00 0.00 0.00 0.00 0.00 0.00 0.00 0.00 0.00 0.00 0.00 0.00 0.00 0.00 0.00 0.00 0.00
0.00 0.00 0.00 0.00 0.00 0.00 0.00 0.00 0.00 0.00 0.00 0.00 0.00 0.00 0.00 0.00 0.00 0.00 0.00 0.00 0.01 0.00 0.00 0.00 0.01 0.00 0.00 0.00 0.00 0.00 0.00 0.00 0.00 0.00 0.00 0.00 0.00 0.00 0.00 0.00 0.00 0.00 0.00 0.00 0.00 0.00 0.00
0.00 0.00 0.00 0.00 0.00 0.00 0.00 0.00 0.00 0.00 0.00 0.00 0.00 0.00 0.00 0.00 0.00 0.00 0.00 0.00 0.00 0.00 0.00 0.00 0.00 0.00 0.00 0.00 0.00 0.00 0.00 0.00 0.00 0.00 0.00 0.00 0.00 0.00 0.00 0.00 0.00 0.00 0.00 0.00 0.00 0.00 0.00
0.00 0.00 0.00 0.00 0.00 0.00 0.00 0.00 0.00 0.00 0.00 0.00 0.00 0.00 0.00 0.00 0.00 0.00 0.00 0.00 0.00 0.00 0.00 0.00 0.00 0.00 0.00 0.00 0.00 0.00 0.00 0.00 0.00 0.00 0.00 0.01 0.01 0.01 0.00 0.00 0.00 0.00 0.00 0.00 0.00 0.00 0.00
0.00 0.00 0.00 0.00 0.00 0.00 0.00 0.00 0.00 0.00 0.00 0.00 0.00 0.00 0.00 0.00 0.00 0.00 0.00 0.00 0.00 0.00 0.00 0.00 0.00 0.00 0.00 0.00 0.00 0.00 0.00 0.00 0.00 0.00 0.00 0.00 0.01 0.01 0.00 0.00 0.00 0.00 0.00 0.00 0.00 0.00 0.00
0.00 0.00 0.00 0.00 0.00 0.00 0.00 0.00 0.00 0.00 0.00 0.01 0.00 0.00 0.01 0.01 0.00 0.00 0.00 0.00 0.00 0.00 0.00 0.00 0.00 0.00 0.00 0.00 0.00 0.00 0.00 0.01 0.01 0.00 0.00 0.00 0.01 0.02 0.01 0.02 0.01 0.01 0.00 0.00 0.00 0.00 0.00
0.00 0.01 0.00 0.00 0.00 0.00 0.00 0.00 0.00 0.00 0.00 0.01 0.00 0.00 0.01 0.00 0.00 0.00 0.00 0.00 0.00 0.00 0.00 0.00 0.00 0.00 0.00 0.00 0.00 0.00 0.00 0.00 0.00 0.00 0.00 0.00 0.00 0.00 0.01 0.01 0.01 0.00 0.00 0.00 0.00 0.00 0.00
0.02 0.02 0.01 0.01 0.01 0.00 0.00 0.00 0.00 0.00 0.01 0.01 0.00 0.00 0.01 0.01 0.00 0.00 0.00 0.00 0.00 0.00 0.00 0.00 0.00 0.00 0.00 0.00 0.00 0.00 0.00 0.00 0.00 0.00 0.00 0.00 0.00 0.00 0.00 0.00 0.00 0.00 0.00 0.00 0.00 0.00 0.00
0.01 0.01 0.01 0.01 0.01 0.01 0.00 0.00 0.00 0.00 0.00 0.01 0.01 0.00 0.00 0.01 0.00 0.00 0.00 0.00 0.00 0.00 0.00 0.00 0.00 0.00 0.00 0.00 0.00 0.00 0.00 0.00 0.00 0.00 0.00 0.00 0.00 0.00 0.00 0.00 0.00 0.00 0.00 0.00 0.00 0.00 0.00
MSLP
1019.99 1019.66 1019.35 1018.98 1018.56 1018.07 1017.63 1017.24 1016.83 1016.40 1016.01 1015.67 1015.32 1015.01 1014.78 1014.54 1014.35 1014.06 1013.83 1013.74 1013.62 1013.49 1013.45 1013.46 1013.38 1013.36 1013.28 1013.19 1012.23 1011.50 1011.50 1011.56 1011.71 1011.92 1012.18 1012.46 1012.86 1013.21 1013.54 1013.74 1013.98 1014.13 1013.72 1013.63 1013.45 1013.73 1013.86
1020.32 1020.01 1019.64 1019.28 1018.85 1018.39 1017.94 1017.45 1017.01 1016.62 1016.21 1015.77 1015.31 1014.86 1014.58 1014.32 1014.06 1013.81 1013.69 1013.56 1013.34 1013.30 1013.25 1013.23 1013.26 1013.34 1013.41 1013.01 1011.47 1011.42 1011.46 1011.62 1011.81 1011.97 1012.29 1012.42 1012.61 1012.86 1013.30 1013.62 1013.89 1013.65 1013.64 1013.50 1013.48 1013.68 1013.80
1020.73 1020.43 1019.96 1019.63 1019.23 1018.77 1018.30 1017.75 1017.27 1016.81 1016.36 1015.91 1015.40 1014.92 1014.56 1014.27 1013.93 1013.66 1013.43 1013.15 1013.04 1013.13 1013.15 1013.18 1013.26 1013.33 1013.24 1011.96 1011.23 1011.34 1011.41 1011.65 1011.78 1011.91 1012.25 1012.46 1012.55 1012.95 1013.30 1013.64 1013.56 1013.64 1013.80 1013.47 1013.41 1013.55 1013.75
1021.03 1020.76 1020.34 1020.04 1019.59 1019.11 1018.59 1018.03 1017.48 1016.91 1016.46 1016.02 1015.47 1015.00 1014.63 1014.25 1013.81 1013.44 1013.00 1012.78 1012.85 1012.89 1012.94 1013.04 1013.17 1013.31 1012.57 1011.24 1011.28 1011.37 1011.49 1011.72 1011.83 1011.92 1012.15 1012.46 1012.55 1013.02 1013.42 1013.70 1013.76 1013.90 1013.96 1013.71 1013.30 1013.51 1013.60
1021.36 1021.02 1020.69 1020.34 1019.85 1019.35 1018.84 1018.30 1017.69 1017.10 1016.69 1016.27 1015.69 1015.15 1014.58 1014.04 1013.58 1013.12 1012.81 1012.67 1012.64 1012.69 1012.84 1012.99 1013.22 1013.18 1012.17 1011.26 1011.31 1011.27 1011.34 1011.62 1011.89 1012.15 1012.36 1012.56 1012.83 1013.55 1013.78 1014.04 1014.32 1014.30 1014.10 1013.82 1013.34 1013.36 1013.61
1021.65 1021.30 1020.99 1020.58 1020.10 1019.55 1019.05 1018.56 1018.04 1017.43 1016.90 1016.35 1015.70 1015.09 1014.53 1013.95 1013.31 1012.82 1012.48 1012.39 1012.38 1012.54 1012.85 1013.03 1013.14 1013.34 1011.82 1011.12 1011.09 1011.24 1011.40 1011.54 1011.91 1012.31 1012.70 1012.98 1013.68 1014.06 1014.43 1014.47 1014.18 1013.94 1013.96 1013.75 1013.72 1013.56 1013.71
1021.95 1021.55 1021.15 1020.76 1020.31 1019.81 1019.34 1018.82 1018.27 1017.70 1017.23 1016.63 1015.81 1015.09 1014.40 1013.81 1013.21 1012.61 1012.36 1012.59 1013.18 1013.26 1013.00 1012.23 1011.94 1011.64 1011.15 1011.12 1011.09 1011.37 1011.44 1011.67 1011.96 1012.40 1013.00 1013.34 1014.09 1013.79 1013.32 1013.42 1013.30 1013.44 1013.68 1013.82 1013.46 1013.39 1013.72
1022.09 1021.78 1021.40 1020.96 1020.46 1020.06 1019.61 1019.08 1018.47 1017.91 1017.44 1016.82 1016.04 1015.19 1014.43 1013.77 1013.12 1012.66 1012.72 1013.60 1014.06 1014.40 1013.22 1011.71 1011.66 1011.42 1011.05 1010.96 1011.28 1011.41 1011.49 1011.92 1012.17 1012.62 1013.09 1013.83 1013.50 1012.88 1012.98 1013.22 1013.44 1013.66 1013.88 1013.84 1013.49 1013.65 1013.88
1022.27 1022.00 1021.63 1021.17 1020.76 1020.31 1019.82 1019.28 1018.70 1018.18 1017.54 1016.90 1016.09 1015.17 1014.35 1013.58 1012.98 1013.01 1013.69 1014.24 1014.23 1014.32 1013.96 1011.76 1011.29 1011.02 1010.93 1011.12 1011.14 1011.22 1011.60 1011.66 1012.08 1012.67 1013.08 1013.42 1012.78 1012.78 1013.00 1013.41 1013.68 1013.72 1013.94 1013.87 1014.02 1013.94 1014.02
1022.41 1022.12 1021.80 1021.47 1021.17 1020.59 1020.06 1019.52 1018.99 1018.44 1017.82 1017.01 1016.07 1015.22 1014.37 1013.48 1013.35 1013.91 1014.19 1014.37 1014.23 1014.26 1013.97 1011.81 1011.07 1010.68 1010.82 1010.94 1011.30 1011.21 1011.34 1011.62 1012.08 1012.39 1013.05 1013.08 1012.67 1012.77 1013.06 1013.33 1013.56 1013.82 1013.34 1013.82 1014.26 1014.74 1015.03
1022.53 1022.27 1021.96 1021.76 1021.46 1020.92 1020.38 1019.81 1019.24 1018.58 1017.78 1016.94 1016.02 1015.27 1014.53 1013.87 1014.14 1014.21 1014.58 1014.26 1014.22 1014.40 1013.80 1011.38 1010.87 1010.68 1010.78 1011.23 1011.35 1011.34 1011.37 1011.49 1011.84 1012.30 1012.91 1012.10 1012.42 1012.80 1013.02 1012.77 1013.14 1013.37 1013.55 1014.21 1014.70 1015.17 1015.49
1022.50 1022.46 1022.25 1022.02 1021.73 1021.22 1020.64 1020.10 1019.48 1018.74 1017.93 1017.01 1016.02 1015.32 1014.73 1014.26 1014.38 1014.47 1014.32 1014.22 1014.39 1014.56 1012.58 1010.93 1010.65 1010.70 1011.03 1011.14 1011.26 1011.49 1011.59 1011.70 1012.01 1012.33 1012.54 1012.32 1012.24 1012.33 1012.04 1012.48 1012.90 1013.44 1014.10 1014.89 1015.56 1015.74 1015.56
1022.96 1022.85 1022.64 1022.32 1022.05 1021.56 1020.99 1020.38 1019.72 1018.93 1017.99 1016.91 1015.84 1015.08 1014.68 1014.59 1014.60 1014.36 1014.36 1014.65 1015.01 1013.74 1011.49 1011.00 1010.70 1010.84 1011.04 1011.16 1011.33 1011.54 1011.90 1012.15 1012.26 1012.69 1012.60 1012.34 1012.11 1011.82 1011.99 1012.79 1013.33 1013.58 1014.28 1015.24 1015.61 1015.85 1014.59
1023.45 1023.24 1023.05 1022.66 1022.33 1021.85 1021.28 1020.59 1019.85 1019.04 1018.10 1016.94 1015.66 1014.78 1014.53 1014.56 1014.52 1014.37 1014.59 1014.89 1014.76 1012.74 1011.57 1010.78 1010.74 1010.98 1011.16 1011.01 1011.24 1011.66 1012.00 1012.17 1012.00 1012.32 1012.85 1012.59 1012.00 1011.67 1011.68 1011.91 1012.42 1013.44 1013.80 1014.36 1014.30 1014.63 1014.15
1023.97 1023.71 1023.43 1023.04 1022.69 1022.30 1021.66 1020.90 1020.13 1019.30 1018.25 1017.02 1015.58 1014.91 1014.81 1014.58 1014.44 1014.54 1014.90 1014.95 1013.44 1012.53 1011.40 1011.08 1011.05 1011.16 1011.31 1011.28 1011.62 1011.90 1012.18 1011.89 1011.38 1011.46 1011.96 1012.28 1011.85 1011.44 1011.60 1011.77 1012.24 1013.37 1013.55 1013.08 1013.38 1013.99 1013.79
1024.44 1024.04 1023.74 1023.39 1023.10 1022.65 1022.03 1021.31 1020.48 1019.51 1018.35 1017.08 1016.61 1015.87 1015.00 1014.48 1014.48 1014.71 1015.16 1014.46 1013.24 1012.05 1011.48 1011.35 1011.63 1011.40 1011.69 1011.73 1012.10 1012.29 1011.80 1011.00 1010.86 1010.79 1010.83 1011.28 1011.57 1011.32 1011.77 1011.96 1012.46 1012.52 1012.64 1013.17 1013.53 1013.49 1012.86
1024.92 1024.43 1024.10 1023.80 1023.48 1023.03 1022.40 1021.72 1020.86 1019.91 1018.70 1017.24 1016.90 1016.31 1014.75 1014.46 1014.53 1015.11 1015.41 1014.65 1013.25 1012.13 1011.96 1011.90 1011.74 1011.86 1011.97 1012.20 1012.33 1012.38 1011.46 1010.68 1010.32 1010.80 1011.03 1011.34 1011.90 1011.62 1011.83 1011.69 1011.56 1012.72 1012.55 1012.74 1012.79 1012.39 1011.79
1025.48 1025.07 1024.59 1024.29 1023.97 1023.51 1022.88 1022.20 1021.32 1020.45 1019.29 1018.32 1017.99 1017.07 1014.73 1014.39 1015.24 1015.65 1015.19 1014.34 1013.73 1012.70 1012.34 1012.16 1012.03 1012.15 1012.32 1012.27 1012.21 1012.08 1011.48 1010.45 1009.78 1010.19 1010.95 1010.82 1011.29 1011.22 1010.57 1010.26 1010.33 1010.39 1010.60 1011.02 1011.42 1011.03 1010.41
1025.80 1025.55 1025.12 1024.70 1024.29 1023.84 1023.32 1022.59 1021.72 1020.85 1020.31 1020.11 1018.87 1017.17 1014.91 1014.85 1015.43 1015.73 1015.14 1014.66 1014.07 1013.36 1012.82 1012.46 1012.41 1012.46 1012.61 1012.78 1012.68 1011.36 1010.62 1009.78 1009.76 1009.92 1009.78 1010.30 1010.73 1011.08 1009.98 1010.72 1010.54 1010.21 1010.10 1009.96 1009.79 1009.84 1008.32
1026.46 1026.01 1025.48 1025.05 1024.68 1024.25 1023.64 1022.82 1021.98 1021.07 1020.17 1019.92 1019.28 1017.99 1016.53 1016.02 1016.30 1016.22 1015.98 1015.29 1014.54 1013.63 1013.38 1013.05 1012.95 1012.97 1013.02 1012.80 1012.71 1011.68 1010.99 1009.99 1009.71 1009.68 1009.33 1009.65 1009.77 1009.48 1008.85 1008.58 1008.99 1009.84 1009.56 1009.32 1009.31 1008.74 1007.96
1026.56 1026.18 1025.82 1025.46 1025.01 1024.51 1023.99 1023.33 1022.46 1021.39 1020.19 1019.92 1019.77 1019.13 1019.64 1018.32 1017.59 1017.63 1017.28 1016.58 1015.96 1015.24 1014.81 1014.16 1013.52 1014.91 1015.41 1014.20 1013.22 1012.50 1011.56 1010.87 1010.00 1009.84 1010.05 1010.17 1009.85 1009.47 1008.33 1008.03 1008.85 1008.60 1008.56 1008.26 1008.35 1007.36 1007.54
1026.86 1026.36 1025.87 1025.56 1025.26 1024.82 1024.38 1023.85 1023.17 1022.35 1021.08 1021.05 1021.94 1021.75 1021.12 1020.33 1019.33 1018.57 1018.22 1017.71 1017.58 1017.61 1017.67 1016.47 1016.50 1016.73 1016.51 1015.86 1015.49 1014.15 1013.81 1013.14 1011.48 1010.23 1010.20 1009.77 1008.68 1008.93 1007.92 1007.29 1008.12 1007.92 1007.43 1007.34 1007.78 1007.18 1007.44
1027.20 1026.77 1026.30 1025.85 1025.51 1025.23 1024.82 1024.43 1023.95 1023.37 1022.87 1023.19 1023.39 1023.24 1022.64 1021.48 1020.83 1020.20 1019.66 1019.49 1019.14 1018.81 1018.28 1018.05 1017.54 1017.06 1016.32 1015.61 1015.41 1014.39 1013.75 1012.97 1012.33 1011.25 1010.37 1009.73 1008.75 1008.46 1006.77 1006.91 1007.79 1007.69 1007.03 1007.65 1007.48 1007.59 1007.90
1027.41 1027.00 1026.58 1026.13 1025.74 1025.54 1025.24 1024.83 1024.46 1024.08 1023.89 1024.24 1024.19 1023.80 1023.20 1022.32 1021.87 1021.50 1020.99 1020.83 1020.19 1020.14 1019.65 1018.44 1017.66 1017.08 1016.22 1015.81 1014.61 1012.92 1012.20 1011.25 1010.80 1009.96 1009.29 1008.81 1008.72 1008.52 1006.53 1007.93 1007.18 1007.75 1009.03 1009.47 1010.23 1011.89 1012.79
1027.57 1027.16 1026.69 1026.30 1026.01 1025.49 1025.23 1024.94 1024.69 1024.46 1024.19 1024.18 1024.27 1024.08 1023.71 1023.13 1022.70 1022.15 1021.88 1021.49 1020.79 1020.13 1019.66 1018.93 1018.02 1017.65 1016.74 1016.04 1014.79 1013.08 1011.58 1010.65 1009.77 1009.79 1009.53 1009.66 1008.57 1007.55 1007.62 1007.92 1008.39 1010.26 1014.01 1015.88 1015.90 1015.74 1016.59
1027.36 1026.95 1026.56 1026.16 1025.87 1025.52 1025.10 1024.89 1024.67 1024.40 1024.27 1024.18 1024.02 1024.07 1024.08 1023.87 1023.09 1023.02 1022.44 1022.01 1021.51 1020.94 1020.11 1019.26 1018.61 1017.85 1017.45 1016.85 1016.34 1015.77 1014.44 1013.46 1012.03 1010.79 1010.07 1010.62 1010.88 1010.89 1010.42 1011.03 1012.60 1017.67 1018.30 1018.67 1018.53 1019.59 1020.29
1027.11 1026.61 1026.23 1025.82 1025.42 1025.16 1024.90 1024.59 1024.48 1024.21 1024.00 1024.07 1023.98 1023.91 1024.05 1023.99 1023.11 1022.99 1022.86 1022.53 1022.19 1021.79 1021.14 1020.24 1019.80 1018.74 1017.94 1017.98 1017.79 1017.44 1016.75 1016.20 1015.76 1015.33 1014.88 1014.10 1013.86 1014.22 1014.54 1015.78 1019.18 1021.68 1020.85 1019.45 1020.63 1024.19 1023.49
1027.29 1026.79 1026.14 1025.60 1025.07 1024.82 1024.56 1024.26 1024.16 1024.09 1023.88 1023.92 1024.08 1023.88 1023.93 1023.47 1022.64 1022.20 1022.09 1021.98 1021.81 1021.84 1021.71 1021.01 1020.41 1019.54 1018.84 1018.72 1019.11 1019.26 1018.88 1018.60 1018.39 1017.87 1017.64 1018.79 1019.63 1019.04 1019.02 1019.91 1022.55 1024.03 1022.68 1024.26 1026.61 1025.71 1025.72
1027.24 1026.64 1026.04 1025.51 1024.96 1024.32 1023.94 1023.76 1023.55 1023.44 1023.31 1023.32 1023.69 1023.39 1023.22 1023.29 1022.32 1021.18 1020.96 1020.75 1020.75 1020.66 1021.61 1021.19 1020.63 1020.41 1019.67 1019.59 1019.77 1020.26 1020.38 1020.28 1020.32 1021.15 1021.33 1023.05 1025.15 1024.59 1025.18 1026.47 1027.56 1027.93 1028.28 1028.54 1028.06 1027.14 1027.19
Thickness
5618 5620 5623 5626 5631 5636 5641 5646 5651 5655 5660 5663 5667 5670 5673 5677 5680 5684 5687 5689 5691 5693 5694 5695 5697 5698 5700 5695 5699 5716 5715 5715 5714 5712 5706 5701 5695 5690 5684 5683 5682 5678 5685 5684 5686 5681 5679
5617 5620 5623 5626 5630 5635 5639 5645 5649 5653 5658 5662 5667 5672 5675 5678 5682 5685 5687 5690 5692 5693 5694 5696 5696 5696 5695 5686 5714 5714 5713 5712 5710 5707 5701 5699 5695 5692 5686 5683 5679 5681 5681 5681 5680 5679 5676
5615 5618 5622 5625 5628 5632 5636 5642 5646 5651 5656 5660 5665 5670 5674 5678 5682 5686 5688 5691 5693 5693 5694 5694 5694 5694 5691 5694 5713 5712 5711 5708 5707 5705 5698 5697 5695 5690 5684 5679 5680 5677 5673 5674 5673 5675 5673
5612 5615 5619 5622 5626 5630 5634 5639 5644 5650 5654 5658 5664 5668 5672 5677 5682 5686 5691 5693 5693 5694 5694 5693 5692 5691 5687 5709 5709 5708 5707 5703 5703 5702 5698 5694 5693 5685 5681 5676 5671 5669 5666 5666 5673 5667 5670
5609 5613 5616 5619 5623 5628 5632 5637 5642 5647 5651 5655 5660 5665 5671 5677 5682 5687 5690 5692 5693 5693 5692 5691 5689 5687 5686 5705 5702 5704 5704 5698 5697 5695 5692 5690 5685 5673 5672 5662 5658 5655 5658 5658 5663 5662 5664
5606 5610 5612 5616 5620 5625 5630 5634 5639 5644 5649 5654 5660 5665 5670 5676 5682 5687 5690 5691 5691 5690 5688 5687 5685 5678 5692 5695 5700 5700 5699 5696 5690 5686 5681 5678 5664 5660 5652 5652 5652 5656 5653 5652 5652 5659 5654
5602 5606 5609 5613 5617 5622 5626 5631 5635 5640 5645 5650 5657 5663 5669 5674 5680 5686 5688 5686 5679 5679 5681 5683 5687 5688 5693 5696 5697 5692 5692 5688 5684 5679 5666 5665 5657 5653 5661 5655 5662 5659 5651 5649 5649 5653 5647
5598 5601 5605 5609 5613 5617 5622 5626 5631 5637 5641 5647 5653 5660 5666 5672 5678 5681 5681 5672 5669 5669 5670 5685 5684 5685 5690 5692 5684 5684 5687 5677 5673 5663 5660 5654 5651 5661 5660 5652 5653 5648 5643 5640 5644 5643 5638
5594 5596 5599 5603 5608 5612 5616 5621 5626 5631 5637 5642 5649 5657 5664 5670 5675 5675 5668 5664 5664 5663 5660 5678 5682 5682 5684 5683 5679 5678 5677 5672 5667 5658 5650 5648 5663 5656 5655 5646 5643 5638 5634 5635 5639 5634 5631
5589 5592 5594 5597 5601 5606 5611 5615 5619 5624 5630 5637 5645 5652 5659 5667 5667 5662 5660 5659 5659 5657 5643 5670 5675 5680 5678 5677 5670 5674 5672 5668 5660 5653 5644 5644 5652 5650 5645 5642 5635 5631 5635 5633 5630 5622 5619
5583 5586 5589 5591 5594 5599 5603 5608 5613 5618 5625 5633 5640 5646 5652 5658 5655 5654 5653 5653 5652 5648 5612 5670 5669 5676 5671 5664 5664 5665 5665 5661 5654 5647 5644 5652 5641 5638 5635 5638 5633 5633 5629 5623 5616 5608 5599
5578 5580 5581 5584 5587 5591 5596 5601 5606 5611 5618 5625 5634 5639 5644 5648 5647 5646 5646 5646 5644 5628 5612 5663 5662 5660 5658 5657 5657 5653 5653 5652 5647 5641 5637 5637 5640 5636 5640 5634 5629 5618 5613 5599 5581 5587 5590
5569 5570 5573 5576 5578 5582 5587 5592 5597 5603 5611 5620 5628 5635 5638 5637 5638 5639 5638 5635 5618 5610 5653 5654 5653 5649 5649 5647 5646 5641 5638 5634 5630 5629 5623 5632 5630 5634 5633 5625 5618 5615 5605 5593 5593 5581 5600
5557 5559 5562 5566 5568 5572 5576 5582 5588 5595 5603 5612 5622 5629 5631 5629 5629 5630 5627 5620 5609 5629 5633 5647 5645 5640 5638 5640 5639 5633 5627 5623 5624 5623 5607 5613 5615 5623 5624 5624 5614 5597 5598 5591 5587 5582 5593
5545 5547 5549 5553 5556 5559 5565 5572 5577 5584 5593 5603 5613 5618 5619 5620 5620 5619 5614 5597 5609 5616 5636 5635 5632 5626 5626 5628 5626 5622 5612 5614 5623 5617 5612 5594 5605 5615 5614 5614 5611 5592 5585 5592 5581 5561 5558
5531 5535 5537 5540 5543 5546 5551 5558 5564 5572 5581 5591 5595 5599 5605 5608 5607 5604 5596 5598 5609 5619 5623 5621 5613 5613 5606 5614 5609 5604 5607 5616 5618 5611 5614 5610 5595 5604 5597 5597 5590 5589 5583 5574 5558 5563 5554
5518 5522 5525 5528 5529 5532 5536 5543 5550 5557 5565 5576 5580 5586 5597 5596 5595 5586 5580 5580 5598 5606 5605 5601 5600 5598 5595 5598 5590 5586 5604 5611 5608 5600 5595 5590 5584 5594 5584 5582 5584 5564 5565 5562 5556 5547 5559
5505 5509 5513 5514 5516 5518 5522 5527 5533 5540 5549 5556 5562 5567 5584 5584 5576 5550 5566 5578 5583 5589 5589 5586 5586 5582 5580 5579 5578 5570 5581 5601 5597 5589 5582 5578 5559 5574 5579 5583 5578 5575 5571 5567 5558 5557 5535
5497 5498 5500 5502 5504 5506 5508 5513 5518 5523 5528 5529 5538 5555 5567 5566 5558 5551 5556 5563 5564 5570 5570 5574 5572 5566 5564 5564 5560 5570 5576 5589 5581 5580 5573 5564 5547 5550 5570 5561 5555 5558 5551 5553 5552 5531 5561
5484 5487 5490 5491 5492 5492 5495 5499 5503 5509 5514 5515 5524 5537 5540 5540 5531 5542 5541 5548 5548 5553 5552 5553 5552 5552 5548 5551 5545 5558 5564 5574 5567 5564 5569 5558 5544 5553 5569 5573 5550 5535 5539 5539 5547 5539 5544
5477 5478 5478 5478 5479 5480 5481 5483 5487 5494 5501 5501 5506 5517 5498 5519 5516 5510 5511 5520 5521 5526 5526 5532 5536 5501 5495 5519 5532 5537 5544 5546 5555 5554 5545 5537 5529 5533 5548 5557 5543 5548 5551 5554 5538 5546 5535
5465 5467 5468 5467 5466 5466 5465 5466 5469 5470 5477 5476 5467 5471 5464 5469 5477 5484 5494 5488 5483 5468 5470 5492 5473 5464 5471 5479 5481 5494 5490 5497 5517 5537 5531 5520 5525 5525 5528 5544 5536 5534 5544 5547 5539 5543 5538
5454 5454 5453 5452 5451 5449 5446 5445 5445 5445 5446 5437 5432 5432 5437 5444 5443 5448 5450 5446 5447 5450 5455 5451 5451 5451 5460 5469 5461 5473 5477 5483 5484 5496 5504 5503 5506 5511 5526 5540 5527 5519 5537 5539 5538 5538 5533
5445 5444 5443 5441 5439 5435 5431 5427 5425 5422 5420 5413 5408 5408 5412 5415 5411 5412 5411 5410 5417 5415 5416 5430 5433 5436 5444 5443 5452 5470 5476 5484 5485 5500 5507 5504 5500 5490 5519 5517 5522 5507 5459 5467 5475 5430 5411
5437 5435 5434 5432 5428 5425 5421 5415 5409 5404 5400 5395 5388 5387 5388 5388 5390 5387 5383 5382 5389 5393 5399 5404 5414 5408 5413 5416 5426 5441 5470 5486 5490 5481 5480 5477 5492 5504 5507 5516 5521 5484 5399 5386 5387 5398 5365
5432 5430 5428 5425 5421 5416 5412 5404 5397 5389 5382 5378 5373 5368 5365 5362 5367 5364 5363 5363 5371 5362 5374 5383 5386 5382 5385 5390 5402 5357 5372 5421 5435 5452 5454 5456 5450 5452 5466 5486 5496 5343 5336 5334 5340 5377 5327
5427 5426 5423 5420 5416 5411 5405 5398 5388 5378 5370 5363 5355 5352 5346 5342 5347 5346 5340 5345 5349 5348 5354 5363 5363 5366 5373 5373 5365 5340 5351 5384 5366 5367 5377 5398 5400 5406 5414 5419 5329 5293 5301 5326 5384 5302 5286
5419 5417 5416 5412 5409 5402 5395 5388 5378 5366 5354 5345 5336 5332 5329 5330 5335 5336 5336 5333 5334 5335 5337 5344 5345 5350 5354 5346 5343 5339 5322 5338 5333 5355 5357 5345 5317 5339 5350 5376 5364 5275 5293 5286 5256 5257 5255
5411 5409 5407 5404 5400 5396 5389 5378 5366 5353 5342 5333 5326 5321 5318 5318 5326 5330 5331 5332 5332 5335 5327 5329 5327 5324 5334 5327 5311 5298 5296 5281 5293 5289 5297 5293 5244 5268 5256 5245 5234 5230 5231 5231 5232 5237 5233